Home > Weather > Cape Coral > Past weeks

Flag for U.S.A. Weather for the Past 2 Weeks in Cape Coral, Florida, U.S.A.

Now
61 °F

Mostly cloudy.


Feels Like: 61 °F
Forecast: 57 / 65 °F
Wind: 20 mph from Northwest

Location: Page Field

Current Time: Feb 9, 2016 at 5:08:27 AM

Latest Report: Feb 9, 2016 at 3:53 AM


Visibility: 10 mi

Pressure: 29.98 "Hg

Humidity: 60%

Dew point: 47 °F

Location of Cape CoralLocation

Historic Weather in Cape Coral — Graph

°F

Cape Coral Temperature Yesterday

Maximum temperature yesterday: 64 °F (at 12:53 PM)
Minimum temperature yesterday: 43 °F (at 6:53 AM)
Average temperature yesterday: 57 °F

High & Low Weather Summary for the Past Weeks

 TemperatureHumidityPressure
High84 °F (Feb 3, 2:53 PM)100% (Jan 27, 3:53 AM)30.30 "Hg (Jan 27, 3:53 AM)
Low42 °F (Jan 25, 3:53 AM)24% (Feb 5, 12:53 PM)29.73 "Hg (Jan 28, 4:53 PM)
Average64 °F78%30.07 "Hg
* Reported Jan 25 2:53 AM — Feb 9 2:53 AM, Cape Coral, Weather by CustomWeather, © 2016

Note: Actual official high and low records may vary slightly from our data, if they occured in-between our weather recording intervals... More about our weather records

Advertising

Cape Coral Weather History for the Previous 24 Hours

 ConditionsComfort  
Time TempWeatherWind HumidityBarometerVisibility
2:53 AM
Tue, Feb 9
63 °FMostly cloudy.18 mph65%29.96 "Hg10 mi
1:53 AM65 °FPassing clouds.14 mph63%29.95 "Hg10 mi
12:53 AM64 °FClear.13 mph78%29.94 "Hg10 mi
11:53 PM
Mon, Feb 8
63 °FClear.10 mph84%29.95 "Hg10 mi
10:53 PM63 °FPassing clouds.9 mph81%29.96 "Hg10 mi
9:53 PM63 °FPassing clouds.8 mph78%29.96 "Hg10 mi
8:53 PM63 °FMostly cloudy.10 mph75%29.99 "Hg10 mi
7:53 PM62 °FPartly cloudy.7 mph75%29.99 "Hg10 mi
6:53 PM62 °FPassing clouds.6 mph73%29.98 "Hg10 mi
5:53 PM64 °FSunny.10 mph63%29.99 "Hg10 mi
4:53 PM62 °FSunny.10 mph73%30.00 "Hg10 mi
3:53 PM62 °FSunny.15 mph65%30.01 "Hg10 mi
2:53 PM63 °FPassing clouds.12 mph60%30.02 "Hg10 mi
1:53 PM64 °FSunny.12 mph56%30.04 "Hg10 mi
12:53 PM64 °FSunny.12 mph54%30.08 "Hg10 mi
11:53 AM63 °FSunny.8 mph50%30.11 "Hg10 mi
10:53 AM62 °FPartly sunny.No wind50%30.14 "Hg10 mi
9:53 AM59 °FPassing clouds.3 mph54%30.14 "Hg10 mi
8:53 AM54 °FSunny.No wind67%30.14 "Hg10 mi
7:53 AM47 °FSunny.No wind90%30.12 "Hg10 mi
6:53 AM43 °FClear.No wind93%30.11 "Hg10 mi
5:53 AM44 °FClear.No wind89%30.09 "Hg10 mi
Weather by CustomWeather, © 2016

See weather overviewHow to use our weather pages